Wind_Speed
11 11 10 10 13 19 24 25 25 24 21 17 17 18 17 16 15 15 14 12 11 10 9 9 8 8 7 7 7 7 7 6 6 5 6 7 7 8 8 8 7 7 6 6 5 5 4 3 2 2 2 3 3 3 3 3 3 4 5 5 6 7 7 8 9 10 10 11 11 12 13 14 14 15 16 17 17 18 19 19 19 19 19 19 19
7 7 7 7 10 16 23 26 26 26 23 20 20 22 21 20 19 18 17 16 14 14 13 12 12 10 9 9 9 9 9 9 8 7 6 7 8 9 9 9 9 9 9 9 8 8 8 7 6 5 5 5 5 5 5 5 6 6 7 7 8 8 9 10 11 12 12 13 13 14 15 16 16 17 18 19 20 21 22 23 24 25 25 24 24
5 5 5 6 8 13 20 25 26 27 25 24 23 24 23 22 22 21 19 18 18 18 18 17 15 14 13 12 12 11 11 11 10 10 10 9 9 10 11 11 11 11 11 11 11 11 11 11 10 10 10 10 10 10 10 10 10 11 11 11 11 11 11 11 12 13 14 15 16 17 18 18 19 20 21 21 22 23 24 25 26 27 28 29 29
5 5 5 6 8 11 17 22 25 27 27 25 24 25 25 25 24 23 22 21 22 22 21 20 19 17 16 16 16 14 14 14 14 14 13 12 11 11 12 13 13 13 13 13 13 13 14 14 14 14 14 14 14 14 14 14 14 15 15 15 15 14 14 14 14 15 16 17 18 19 20 22 23 23 24 24 25 26 26 27 27 28 29 30 30
5 6 7 8 9 12 16 19 23 25 25 24 24 25 25 25 25 25 24 23 24 23 22 21 22 22 21 21 20 18 16 15 16 17 17 17 16 15 14 14 14 15 15 14 15 15 15 16 16 16 16 17 17 17 18 18 18 19 19 18 18 18 17 17 18 19 20 21 22 22 23 25 26 27 27 27 28 28 28 29 30 30 30 30 30
6 7 9 11 11 12 14 17 19 20 20 22 24 24 24 25 26 26 26 24 24 25 24 23 23 25 26 25 23 21 19 16 16 19 20 21 21 20 19 17 16 17 17 17 17 17 17 17 18 18 18 18 18 19 19 19 20 21 21 22 21 21 21 21 22 23 24 25 26 26 27 28 29 29 30 30 30 30 30 30 31 31 31 30 30
8 8 10 12 13 13 13 15 15 16 17 19 22 24 25 26 26 26 26 25 25 26 26 24 22 22 22 22 22 23 22 19 19 20 21 23 24 24 24 21 18 18 19 20 20 19 19 19 19 19 19 18 19 21 21 21 22 22 23 24 25 25 25 25 26 27 28 29 29 29 30 31 31 32 32 33 34 34 33 32 31 30 30 29 29
8 9 10 12 14 14 14 14 13 14 14 16 19 23 26 27 26 26 27 27 27 27 25 23 22 21 20 19 19 20 20 21 21 21 22 23 23 25 27 24 20 19 20 21 22 22 22 21 21 21 20 19 20 21 23 23 24 25 26 26 28 28 29 29 29 29 30 30 31 31 32 32 33 34 34 36 37 37 37 36 33 31 29 28 29
9 10 11 13 14 14 14 15 14 13 14 16 19 21 23 24 24 25 26 27 27 26 24 22 22 22 20 19 19 18 18 19 20 20 20 20 20 21 24 24 22 21 22 23 23 23 23 22 22 22 22 22 22 23 24 25 26 27 28 29 30 31 32 33 33 34 33 32 31 31 32 33 35 36 37 37 38 38 37 37 35 33 32 30 29
9 10 11 12 13 13 14 15 15 14 15 17 19 19 20 21 22 23 23 24 24 24 23 22 21 19 18 18 17 16 16 17 18 19 18 19 19 19 19 21 21 22 24 25 26 25 24 24 24 24 24 24 24 25 26 27 28 29 30 32 33 34 35 36 37 38 38 37 35 33 33 34 36 38 38 38 38 37 37 36 35 34 34 33 31
9 10 11 12 13 13 14 15 15 15 16 17 18 18 19 19 20 20 20 20 20 20 19 18 17 17 16 16 16 16 16 16 18 19 18 18 19 19 18 19 20 21 22 23 24 25 26 26 26 25 25 25 26 27 29 30 31 31 32 34 34 34 35 36 38 40 40 42 41 37 34 34 35 37 38 38 37 37 36 36 36 35 36 36 34
10 11 12 13 13 14 14 15 16 16 16 17 18 18 19 19 18 18 18 18 18 18 18 17 17 17 17 18 18 18 19 19 20 22 22 22 21 21 20 20 21 21 22 22 23 24 26 28 27 26 26 26 27 29 30 32 33 33 34 36 36 35 35 37 39 40 41 43 44 39 34 34 36 37 38 38 38 38 37 37 37 38 38 38 38
12 12 14 14 14 15 15 17 18 18 18 19 19 20 21 20 20 20 20 20 20 20 20 20 19 20 20 21 22 22 23 24 25 26 26 25 25 25 25 24 24 24 24 24 25 26 28 29 29 29 29 29 30 31 32 34 36 36 37 38 37 37 38 40 41 42 42 44 43 39 35 36 37 38 39 40 40 39 39 38 39 40 40 40 40
13 14 16 16 17 17 18 19 20 20 21 21 22 22 23 23 23 23 23 23 22 22 22 22 22 22 23 24 25 26 26 27 28 28 28 28 28 28 28 28 28 27 27 27 28 29 30 31 31 32 32 33 33 34 35 36 38 38 38 39 39 40 40 41 41 42 42 42 41 38 37 37 38 38 39 40 41 41 41 41 41 41 42 42 42
14 15 16 18 19 20 20 20 20 20 20 21 21 22 23 23 23 22 22 21 21 21 22 23 24 25 26 27 27 26 26 26 27 27 28 29 29 29 30 30 30 30 30 30 30 31 32 32 33 33 34 35 35 36 37 37 37 38 39 39 40 41 41 40 40 40 40 39 39 39 39 39 39 40 40 41 42 43 43 43 43 44 44 44 43
16 16 17 18 19 20 20 19 18 18 18 19 21 22 23 23 23 22 22 21 21 21 22 23 24 25 26 26 26 26 25 25 25 26 27 28 28 29 29 29 29 29 29 30 31 31 32 32 32 33 33 33 34 34 34 35 35 36 37 38 38 38 38 38 37 38 38 38 39 40 40 41 41 42 42 43 43 44 44 45 45 45 46 46 45
19 19 18 18 20 20 19 19 18 18 18 19 20 22 23 23 24 25 25 25 24 24 24 24 24 25 25 25 25 25 25 25 25 26 27 28 28 28 28 28 28 28 28 28 28 29 30 30 30 31 31 31 31 32 32 33 34 34 35 35 36 36 36 36 36 37 38 39 39 40 41 41 42 42 43 44 44 44 45 45 45 46 46 47 46
24 26 24 22 22 21 20 20 19 18 18 18 19 20 21 22 24 26 27 27 27 26 26 26 26 26 26 26 26 26 26 26 26 27 27 28 28 28 28 28 27 27 28 28 28 28 28 29 29 29 29 30 30 30 31 32 32 33 34 35 35 36 36 36 37 38 38 39 40 41 41 42 42 42 43 43 44 44 45 45 45 45 45 45 45
28 28 25 22 22 22 22 21 21 19 19 19 19 20 22 23 25 27 28 29 29 28 28 27 27 27 27 27 28 28 28 28 29 29 29 30 30 29 29 28 28 27 27 27 27 27 27 28 28 29 29 30 30 30 31 31 32 33 34 35 35 35 36 37 38 39 40 40 41 41 42 42 42 42 41 42 42 43 43 43 43 42 43 44 44
27 27 25 23 21 22 22 22 21 20 19 20 21 23 24 26 28 29 30 31 31 30 30 30 29 29 28 28 29 29 30 30 31 31 32 32 32 32 31 31 30 29 29 29 29 28 28 28 28 28 28 29 29 30 31 32 32 33 34 34 35 36 37 38 39 40 41 41 41 41 41 41 41 40 40 40 39 39 40 40 41 42 43 44 44
25 27 27 24 22 23 24 23 22 21 20 19 20 22 25 28 29 30 32 33 33 33 32 32 31 31 30 29 29 29 30 31 32 32 32 32 32 32 32 32 32 32 32 32 32 32 32 31 31 30 30 31 31 31 31 32 32 33 34 35 36 37 38 39 40 41 42 42 41 41 40 39 39 38 38 38 38 39 39 40 41 42 44 45 46
25 26 26 25 25 26 26 25 23 21 20 19 20 23 26 28 29 31 32 32 33 34 34 34 33 32 32 31 30 30 31 31 32 32 33 33 33 33 33 33 33 33 33 33 33 34 34 34 33 34 34 35 35 35 34 34 34 34 35 36 37 38 39 40 41 41 41 41 41 40 39 38 38 37 38 38 39 40 41 41 43 44 45 47 48
25 25 26 26 27 27 27 26 24 22 21 21 23 25 27 28 30 31 32 32 33 33 33 34 34 33 33 33 33 33 33 32 32 32 33 33 34 34 35 35 35 34 34 34 34 34 34 34 34 35 35 36 36 36 36 36 36 36 37 38 38 39 40 40 41 41 40 40 40 39 38 37 38 38 39 40 40 41 42 43 44 46 47 48 49
27 27 27 27 27 27 27 27 26 25 25 25 25 25 27 29 31 32 33 33 33 33 33 34 34 34 35 35 35 35 34 34 34 34 34 35 35 35 35 36 36 35 35 35 35 35 35 35 36 36 36 36 36 36 36 36 37 37 38 38 38 39 39 39 39 38 38 37 37 36 37 38 39 39 40 41 42 43 44 44 45 46 47 49 50
30 30 29 29 29 29 29 28 28 28 28 28 27 27 28 29 30 31 32 32 32 32 33 33 34 35 35 36 36 35 35 35 35 35 35 36 36 36 36 36 36 36 36 36 36 37 36 36 36 37 37 37 37 37 37 37 38 38 38 38 38 38 37 36 36 35 35 35 35 36 37 38 39 40 41 42 42 43 44 45 46 47 47 49 49
33 33 32 32 31 32 32 31 31 31 31 31 31 30 31 31 31 31 32 32 32 33 33 34 35 35 35 36 36 36 35 35 35 35 36 36 36 36 36 36 36 36 36 36 36 37 37 37 37 37 37 37 37 37 37 37 37 37 37 37 36 35 34 33 33 33 33 34 35 36 37 38 38 39 40 41 42 43 45 46 46 46 46 47 47
36 36 35 35 35 35 35 34 34 34 34 34 34 34 34 34 34 34 34 34 34 34 34 35 36 36 37 37 37 37 36 36 35 35 35 35 35 35 34 34 34 34 35 35 36 36 36 36 37 37 37 37 36 36 35 35 35 34 34 33 32 31 30 30 31 32 33 34 35 35 36 37 38 39 40 42 42 43 43 44 45 44 43 42 42
39 38 37 37 37 37 37 36 36 36 36 36 36 36 35 36 36 37 37 36 36 35 35 35 35 36 36 37 37 37 36 34 33 33 33 34 33 33 32 32 32 32 33 34 34 34 35 35 35 35 34 33 32 31 31 30 30 29 28 28 28 28 29 29 30 31 32 33 33 34 35 37 38 40 41 41 40 39 39 40 40 40 39 38 36
39 38 37 36 36 37 37 37 36 35 35 35 36 36 36 37 37 38 37 37 37 37 37 37 36 35 35 35 34 33 31 30 29 30 31 31 31 31 31 31 31 32 33 33 34 34 33 33 31 30 28 27 26 26 26 26 25 25 25 25 26 27 28 28 29 29 30 31 33 35 36 37 38 39 39 37 35 33 33 35 35 34 34 33 31
38 36 35 34 35 35 35 36 36 35 35 35 35 36 37 37 38 38 38 38 39 39 39 38 36 34 32 31 30 29 28 27 28 29 30 30 31 31 31 31 31 32 32 33 32 30 28 25 23 22 21 21 22 22 22 22 22 22 23 24 25 25 25 26 26 27 29 31 33 35 36 36 36 35 34 31 28 27 29 30 30 30 30 29 28
37 36 35 34 34 34 34 35 35 35 35 36 36 37 38 37 38 38 39 40 40 40 40 38 34 31 30 29 29 29 28 29 30 31 31 32 32 31 30 30 30 30 29 28 25 22 19 17 17 18 19 19 20 19 19 20 20 21 21 22 22 22 22 24 25 28 30 31 32 33 33 33 32 31 28 26 25 25 26 27 28 28 28 27 26
37 36 36 35 35 35 35 35 35 35 36 37 37 37 37 37 38 39 40 41 40 39 37 36 33 31 30 30 31 31 31 32 32 32 32 31 31 29 29 28 26 24 23 21 17 14 14 15 16 17 17 17 18 18 18 19 18 18 18 18 19 20 21 24 26 27 29 30 30 30 30 29 28 26 25 24 24 25 26 27 28 28 28 27 25
37 36 36 37 37 37 37 37 36 36 36 37 38 38 38 38 38 39 39 38 36 34 34 33 32 32 32 33 33 34 34 34 34 32 31 31 30 28 26 24 21 20 19 17 14 14 14 16 16 17 17 17 17 17 16 15 15 14 15 16 18 19 21 23 24 26 27 27 27 28 28 28 27 24 23 23 24 25 26 26 26 26 26 26 25
36 36 36 36 38 39 39 39 39 39 39 39 39 39 38 38 37 37 35 34 32 31 31 32 33 33 34 34 34 34 34 34 34 33 32 30 27 25 21 19 19 19 18 17 16 16 16 16 17 17 17 16 15 14 13 12 12 13 14 16 17 18 20 21 23 24 24 25 26 27 28 28 27 25 24 24 24 25 25 26 26 25 24 23 23
35 35 35 36 37 38 39 40 40 41 41 40 39 38 37 37 36 35 33 31 31 31 31 32 33 34 34 34 34 33 33 33 32 32 30 26 23 20 17 17 18 20 19 18 17 17 16 17 17 15 14 12 11 10 10 11 12 13 14 14 15 16 18 20 21 22 23 24 26 28 28 28 27 26 25 25 25 26 26 26 26 24 22 21 21
32 32 33 34 35 37 38 39 39 39 39 38 37 36 36 36 36 34 33 32 31 31 31 31 32 32 32 32 32 32 31 30 29 28 25 21 18 16 16 17 20 20 19 18 16 16 16 16 14 12 10 8 8 9 10 11 12 12 11 12 13 15 16 17 18 20 22 24 26 27 28 28 27 26 26 26 26 26 26 25 23 21 21 21 22
27 28 28 27 29 31 33 34 35 35 36 36 36 36 36 35 34 33 32 32 31 30 30 30 30 30 30 29 29 30 29 27 25 22 19 16 16 17 17 19 20 18 17 16 15 14 13 12 10 8 7 7 8 9 10 10 9 9 10 11 13 14 15 16 18 20 22 24 26 27 27 27 26 26 26 26 25 25 25 24 22 20 20 22 24
24 25 24 23 24 25 26 27 29 30 31 32 33 33 33 33 32 31 31 30 29 29 28 27 26 25 23 22 22 21 21 19 17 17 17 17 18 19 19 18 17 16 15 14 13 12 10 8 7 6 6 8 9 9 8 8 7 8 10 11 12 13 15 17 19 21 23 24 25 26 27 26 25 25 25 25 23 24 24 24 22 20 20 22 24
22 22 22 22 23 23 22 23 25 26 27 28 29 30 30 29 29 28 27 26 25 24 22 20 18 14 12 11 11 11 12 13 15 17 18 19 20 19 18 16 14 13 13 12 11 10 8 6 5 6 7 8 8 7 6 6 7 8 10 11 12 13 15 17 19 20 22 24 25 26 26 25 23 23 24 24 23 23 24 25 23 21 20 22 23
20 20 20 21 22 22 22 23 23 24 24 25 26 27 27 26 25 23 21 18 16 15 14 13 11 10 10 11 12 14 15 16 18 18 19 20 19 17 15 13 12 11 11 11 10 7 5 5 6 7 8 7 5 4 5 6 8 9 10 10 12 13 15 17 18 20 22 23 24 25 25 24 23 22 22 22 22 23 24 25 24 22 22 22 22
17 17 18 19 20 20 20 21 21 22 22 23 24 23 21 19 16 13 13 12 11 11 13 15 17 17 16 15 16 17 17 17 18 18 19 19 17 14 12 11 11 11 10 9 7 5 4 5 7 7 6 4 4 4 5 7 9 10 10 11 12 13 15 17 18 20 21 22 23 24 24 24 23 22 21 21 21 21 23 24 25 23 21 20 20
16 16 16 16 16 17 18 19 20 19 19 18 16 13 11 10 10 11 13 14 14 15 17 19 21 21 20 18 17 17 16 15 15 16 16 15 13 11 10 10 10 9 8 7 5 4 5 6 6 5 3 3 4 5 6 7 9 10 11 11 12 13 15 17 18 19 20 22 23 24 24 24 24 23 22 21 21 21 21 23 23 22 19 17 17
14 13 13 13 14 15 16 15 14 13 11 9 9 9 9 12 15 15 15 16 17 18 18 18 18 18 17 16 15 14 13 13 13 13 13 12 10 10 9 9 8 8 7 5 5 5 6 6 5 4 3 4 5 5 6 7 9 10 11 11 12 14 15 17 18 18 19 21 22 23 24 24 24 23 22 21 21 20 20 21 21 20 17 15 14
10 10 11 10 9 8 7 6 5 8 12 13 13 12 13 15 16 16 16 16 16 15 14 14 15 15 14 13 12 11 12 12 12 11 11 10 10 9 8 8 7 6 6 5 5 5 5 5 4 4 4 5 6 6 6 7 8 9 10 11 12 14 15 17 18 19 20 21 22 23 23 24 24 24 23 22 21 20 19 20 19 17 15 14 14
7 7 6 5 5 5 4 3 4 8 13 14 12 12 14 14 15 15 15 15 14 14 12 11 12 13 13 12 11 10 10 10 10 10 10 10 10 9 8 7 7 6 5 5 5 5 5 4 4 4 4 5 6 7 7 8 8 9 10 11 12 14 15 17 18 20 21 22 23 23 24 24 25 25 24 23 22 21 19 19 19 17 15 14 14
6 7 10 13 12 10 8 7 7 9 12 14 14 14 15 14 14 14 14 15 15 13 10 9 10 11 11 10 10 9 9 10 10 10 10 9 9 8 7 7 6 5 5 5 4 4 4 4 4 5 5 6 7 8 8 9 9 10 11 12 13 14 15 17 19 20 21 22 23 24 24 25 25 26 25 24 23 21 19 18 18 18 16 14 13
12 15 17 15 12 10 9 8 8 10 12 13 13 13 13 13 13 12 11 11 11 10 8 9 10 10 10 10 10 10 10 10 10 9 9 9 8 7 6 6 5 4 4 3 3 3 3 4 4 5 6 6 7 8 9 10 11 12 12 13 14 15 16 17 19 20 21 22 23 24 25 25 26 26 26 25 23 22 20 18 17 17 16 14 12
16 18 16 12 9 9 9 9 11 12 11 11 11 11 12 11 10 9 8 7 7 7 8 10 11 10 10 10 10 10 10 10 10 9 9 8 7 6 5 5 4 3 3 2 3 3 4 5 5 6 6 7 8 9 10 11 12 13 14 14 15 16 17 18 19 20 21 22 23 24 25 26 26 26 26 26 24 23 21 18 17 17 17 15 12
16 15 12 10 9 8 7 10 14 15 12 11 10 11 10 9 8 7 7 7 7 7 9 10 10 10 10 11 11 10 10 10 10 9 8 7 6 5 4 3 2 1 2 2 3 4 5 6 7 7 8 8 9 10 10 11 12 13 14 15 16 16 18 19 19 20 21 22 23 24 24 25 25 26 26 26 25 23 22 20 18 17 16 16 14
14 12 9 9 8 7 7 9 11 12 10 10 9 8 8 8 8 7 7 7 8 9 9 9 9 9 10 10 10 10 10 9 9 8 7 6 4 3 2 1 1 2 3 4 5 6 7 8 8 9 9 10 10 11 11 12 12 13 14 15 16 16 17 18 19 20 21 21 22 23 23 24 24 24 25 25 25 24 22 20 19 17 16 16 15
10 9 7 7 7 6 6 7 8 8 7 7 7 6 6 6 6 6 6 7 8 9 9 9 9 9 9 9 9 9 8 8 7 6 4 3 2 1 1 2 3 4 5 6 7 8 9 9 10 10 11 11 12 12 12 13 13 14 14 15 16 17 17 18 19 20 21 21 22 23 23 23 24 24 23 24 24 24 22 21 19 18 17 16 15
Wind_Direction
216 222 229 227 225 223 219 219 220 221 220 216 219 224 227 230 233 238 240 240 243 245 244 244 244 244 246 248 250 252 252 255 264 276 290 300 306 309 307 306 307 304 303 304 306 309 308 307 309 308 309 311 313 322 329 328 326 321 315 308 304 300 299 300 300 300 303 305 308 309 310 310 310 309 308 308 307 306 304 302 300 297 294 290 286
217 230 231 226 223 216 215 220 223 226 227 221 219 222 224 225 229 234 238 239 242 245 246 245 244 245 248 249 249 249 244 237 236 242 256 276 290 296 297 298 298 295 292 290 289 289 289 288 287 284 281 280 279 282 285 287 289 290 290 287 285 285 285 289 292 295 298 301 303 305 305 306 306 306 306 306 306 305 305 304 303 302 300 298 295
222 249 244 231 228 218 217 223 227 230 232 229 223 223 224 225 228 233 237 238 240 243 243 243 245 246 247 249 250 249 245 239 236 237 242 252 266 278 282 284 285 286 286 285 283 280 279 279 278 279 279 278 279 280 281 282 281 279 277 274 271 269 268 271 276 282 289 294 297 298 299 300 300 300 300 300 300 300 300 301 302 301 300 299 297
231 256 258 245 239 226 221 226 232 235 236 233 227 224 225 226 229 235 240 239 241 246 249 248 249 248 248 248 247 249 249 248 249 251 254 256 258 264 271 273 273 274 276 278 277 275 273 272 271 273 275 275 276 277 277 277 276 274 271 269 267 265 264 266 269 272 276 280 284 287 289 290 291 291 291 292 293 294 295 296 297 298 297 296 295
250 256 257 250 240 230 223 227 234 238 237 232 228 228 230 231 233 238 242 245 251 259 266 265 258 256 259 255 249 252 257 256 257 259 262 264 264 263 262 262 263 265 266 268 270 271 269 269 268 269 271 274 275 275 275 276 276 274 272 270 270 271 271 272 274 275 275 276 278 280 282 284 286 287 287 288 290 292 294 296 298 298 296 295 294
263 258 256 251 242 235 234 234 237 240 237 231 229 232 236 236 236 239 245 251 255 260 269 272 265 262 263 258 253 258 264 263 262 262 262 262 262 262 258 255 254 258 262 263 264 264 265 267 268 268 269 273 275 276 276 276 276 276 276 276 277 277 278 279 279 280 281 282 282 283 284 285 286 288 289 289 290 291 292 294 296 297 296 295 293
264 259 255 249 244 245 249 247 242 241 238 233 234 238 238 238 237 240 247 253 256 260 267 268 267 269 268 260 256 260 263 265 267 267 264 260 258 257 257 255 254 255 258 259 259 260 262 263 265 266 268 272 275 277 276 274 274 275 277 278 279 279 280 282 282 284 285 286 287 288 288 288 289 290 291 292 293 294 294 294 294 294 293 292 290
259 257 251 245 245 250 253 250 245 242 239 235 237 239 240 240 240 243 248 255 261 267 267 261 264 272 272 265 262 262 263 266 268 267 266 264 261 258 257 259 261 259 258 259 260 262 263 263 264 264 264 266 270 275 277 275 274 276 277 279 280 281 282 284 284 284 284 285 286 287 289 290 291 293 294 295 296 296 296 296 295 293 291 289 288
258 254 249 245 246 251 253 251 247 244 241 238 239 241 242 244 245 248 253 259 264 267 263 260 265 270 267 265 266 265 264 265 264 264 266 267 266 261 257 259 262 261 260 260 260 261 263 266 268 268 267 265 265 269 274 275 276 278 280 281 283 285 286 286 286 285 285 285 284 285 287 290 291 293 294 295 296 296 296 295 295 294 292 291 289
257 255 251 248 250 254 256 254 250 246 244 243 244 247 251 252 253 255 257 259 261 262 260 262 265 264 261 262 264 264 265 265 264 265 266 268 269 267 264 264 264 264 263 260 257 257 258 263 268 269 269 269 268 269 271 274 277 279 281 282 284 286 287 288 288 288 288 287 285 285 287 289 291 292 294 295 295 296 295 295 294 294 293 292 291
254 253 251 249 252 254 254 251 248 246 246 244 244 249 252 253 254 255 254 252 254 254 252 252 253 253 255 258 258 259 263 265 265 265 265 267 270 270 269 269 270 271 270 265 259 255 256 261 266 268 270 272 274 275 275 276 278 280 282 283 285 287 289 290 290 290 291 290 288 289 291 292 292 293 294 295 296 296 297 296 295 294 294 293 292
249 250 249 248 249 250 249 247 244 246 247 243 240 241 242 243 244 244 243 241 241 241 239 240 243 247 249 252 253 255 258 261 262 262 262 264 267 268 268 268 268 270 270 266 262 258 260 265 269 270 271 274 277 278 279 280 280 281 283 284 287 289 291 291 291 292 293 292 293 297 298 296 296 296 296 296 297 297 297 297 296 295 295 294 294
244 245 245 246 246 244 244 242 241 241 242 238 235 235 235 235 236 237 238 238 237 239 241 243 246 247 248 250 251 252 254 257 259 261 263 265 267 269 269 269 268 268 266 263 261 261 262 266 268 269 270 271 272 274 275 277 279 281 283 284 286 288 288 289 291 292 293 294 297 302 302 299 298 298 297 297 298 297 297 296 296 295 295 295 294
237 237 238 239 240 240 239 238 238 239 240 240 241 242 243 243 244 245 247 248 248 248 249 251 252 253 253 254 255 255 256 259 262 265 267 269 270 270 271 271 270 270 268 266 264 264 263 264 266 268 269 271 272 273 274 276 278 281 283 284 286 287 287 289 291 292 294 296 300 303 301 299 298 297 297 298 297 297 296 295 295 294 293 293 294
238 238 238 239 241 242 242 242 243 245 248 251 253 254 254 254 254 254 254 255 255 255 255 256 257 258 258 259 260 261 262 263 265 268 270 271 272 272 273 273 273 272 272 271 270 269 269 268 269 270 272 273 274 275 276 278 279 281 282 283 285 287 288 290 292 294 296 298 300 300 299 298 298 297 298 297 297 296 296 295 295 295 294 294 294
239 240 240 241 242 242 243 244 246 249 252 256 259 260 260 260 259 260 260 260 259 259 259 260 260 261 262 263 264 265 265 264 265 266 268 269 271 271 272 273 274 274 273 272 272 272 273 273 274 275 276 276 276 277 277 278 279 280 281 283 284 287 289 291 293 294 295 296 296 296 296 296 297 297 297 296 296 296 296 296 296 296 295 295 294
239 242 240 239 238 237 237 239 241 245 249 254 257 260 261 262 263 263 263 263 262 262 262 263 264 264 265 266 267 268 268 268 267 267 268 269 270 271 272 273 273 274 274 274 273 273 273 274 275 276 277 277 277 277 277 278 279 280 282 284 285 287 289 290 291 292 293 293 294 294 294 295 296 296 296 297 296 296 295 295 296 295 295 295 294
253 247 237 230 228 230 234 237 240 244 250 255 259 264 267 268 269 268 266 264 263 262 262 262 263 265 266 268 270 270 271 272 272 272 272 272 273 273 274 274 274 275 275 275 275 275 275 275 275 275 275 275 275 276 276 277 279 281 282 284 285 287 289 290 291 291 292 293 293 294 295 296 297 297 298 298 298 297 297 297 296 296 296 295 294
264 255 244 238 234 232 233 235 238 240 244 252 260 266 270 271 272 271 269 267 264 262 262 262 263 264 266 268 270 271 273 273 274 274 274 274 275 275 275 275 275 275 275 275 276 276 277 277 277 277 277 277 277 277 278 278 279 280 282 284 286 289 290 291 292 292 293 294 295 297 298 298 299 299 299 299 299 299 298 298 297 297 296 295 294
271 271 271 268 258 248 246 246 246 246 249 255 259 261 264 266 268 268 266 264 263 262 262 262 263 264 265 267 268 270 271 271 272 272 273 274 275 275 275 275 275 275 274 274 275 276 276 277 278 279 279 280 279 279 279 280 281 283 285 287 289 290 291 291 292 293 294 295 297 297 298 299 299 299 299 299 298 298 297 296 296 295 295 294 294
273 276 276 271 264 260 259 257 256 257 260 262 261 261 263 264 265 264 262 260 259 260 260 261 261 262 264 266 268 269 269 269 269 270 271 273 274 276 277 277 276 275 275 274 275 275 276 277 278 278 279 278 279 279 281 282 284 286 288 288 289 289 290 291 292 293 295 296 297 298 298 299 299 299 298 297 297 296 295 295 294 294 293 293 292
271 272 272 270 268 266 263 260 258 258 259 260 261 263 265 266 266 265 264 262 261 261 261 261 261 262 264 266 268 269 270 269 269 270 271 272 274 275 276 277 277 277 277 276 276 276 276 277 277 277 277 277 278 279 280 282 284 285 286 286 287 288 289 290 291 293 294 296 297 298 299 299 299 298 297 296 296 295 294 294 293 293 292 292 292
269 268 267 267 267 266 264 262 260 258 258 259 261 264 267 269 269 269 268 267 266 265 264 264 264 265 266 268 270 271 271 270 270 270 271 271 272 273 274 275 276 277 278 278 277 277 276 276 275 275 276 277 278 279 280 281 282 283 284 285 286 286 287 289 290 292 294 296 297 298 298 298 297 296 295 295 294 294 293 293 292 292 292 292 292
271 269 269 269 268 267 265 263 260 258 256 257 258 261 265 266 267 267 267 267 267 266 266 266 266 266 267 268 269 270 271 271 271 270 270 271 271 271 272 273 274 275 276 276 276 275 275 275 275 275 276 276 277 278 280 280 281 281 282 283 284 285 286 288 291 293 295 296 297 297 296 295 295 294 294 293 293 293 293 292 292 293 292 292 292
270 270 270 270 269 269 269 267 265 263 261 258 258 260 263 264 263 263 263 264 265 266 266 265 265 265 265 266 267 269 270 271 271 271 271 271 271 271 272 272 273 274 274 273 274 274 274 274 274 275 275 276 277 278 279 279 279 280 281 283 284 285 288 290 293 294 294 294 294 294 294 293 293 293 293 294 294 295 294 294 294 294 293 292 292
264 265 265 265 265 266 267 266 266 266 264 262 261 263 264 265 265 265 264 265 266 267 266 265 264 263 264 265 267 268 269 270 271 272 272 271 271 271 272 272 272 272 272 272 272 273 273 274 274 274 275 275 276 277 277 278 279 280 281 282 284 287 289 291 291 291 292 293 293 293 293 293 294 295 296 297 297 297 297 296 295 294 294 293 293
256 257 258 258 259 260 261 262 264 265 264 264 265 266 267 267 268 269 270 270 270 269 267 265 263 264 265 266 267 268 269 270 271 272 272 271 271 270 270 270 270 271 271 272 272 272 272 272 273 273 274 275 275 275 276 277 278 279 281 283 285 287 287 288 289 291 292 292 292 292 294 296 298 299 300 300 299 299 299 298 298 298 298 298 297
256 255 255 255 256 257 258 260 262 263 263 265 266 267 268 269 270 272 273 275 275 274 271 268 267 267 268 268 269 269 270 270 271 271 270 269 268 269 269 270 271 272 272 272 272 273 273 273 273 273 273 273 274 274 275 276 278 279 281 282 282 283 284 287 290 292 292 293 295 297 300 302 302 302 301 301 302 303 303 303 304 304 304 303 302
260 258 255 254 254 255 256 257 257 258 260 262 264 266 268 270 271 272 274 276 277 277 276 275 274 274 273 272 271 270 270 270 269 268 267 266 267 268 270 272 274 275 275 275 276 276 275 274 272 271 271 271 272 273 275 276 276 277 276 276 278 283 286 289 291 293 295 299 302 303 304 304 303 303 303 304 306 308 309 308 308 307 307 306 307
259 257 253 250 250 252 253 255 256 256 258 259 261 263 265 267 269 270 272 273 274 275 276 277 277 277 275 272 269 267 267 267 266 265 266 267 268 269 270 272 274 276 277 279 280 279 276 272 269 268 268 269 271 272 273 273 273 274 276 278 282 286 289 291 294 299 302 304 304 304 304 304 305 306 306 306 307 310 311 312 313 313 313 311 310
256 253 250 248 248 248 250 251 253 255 256 257 258 261 263 266 268 270 271 272 273 273 274 275 275 273 271 269 266 265 265 265 266 267 267 268 269 270 271 272 273 276 280 281 279 275 271 268 267 267 267 268 269 271 272 274 276 278 281 284 287 290 294 298 302 303 304 303 303 304 306 308 309 309 308 306 307 312 314 316 317 318 318 317 314
256 252 249 248 248 249 250 250 251 252 253 255 257 260 264 267 270 272 273 274 273 272 271 271 269 267 267 267 266 266 266 267 267 268 268 269 269 269 270 271 271 273 277 277 273 268 266 266 267 268 268 270 273 275 277 278 279 281 284 289 293 297 300 302 302 302 302 303 304 307 311 313 315 315 312 311 312 316 317 317 316 315 316 318 319
256 253 250 248 248 249 251 252 252 252 252 254 257 260 265 269 272 273 274 273 271 269 267 266 266 265 266 266 267 267 267 267 266 267 267 268 268 267 268 267 263 261 265 267 263 260 262 264 266 270 273 276 277 278 278 278 281 285 291 296 298 300 300 301 302 303 303 306 310 316 320 322 322 321 319 318 318 319 318 318 317 315 314 315 316
256 254 252 249 248 249 250 251 252 253 254 256 259 263 266 269 271 272 272 270 267 265 265 265 265 265 265 266 267 267 266 265 264 264 265 266 266 264 260 251 244 247 254 257 254 253 257 264 270 275 276 276 276 276 278 282 289 294 296 297 298 300 302 304 305 306 309 314 321 325 327 327 327 325 323 322 322 322 322 322 322 321 319 317 316
258 256 255 253 251 251 251 252 253 255 256 259 261 263 265 267 270 272 271 269 267 266 266 266 266 265 265 264 263 263 263 262 260 260 261 261 258 252 241 231 233 242 248 249 250 254 261 269 274 274 273 272 274 280 287 292 293 292 292 295 300 304 307 308 309 313 319 325 328 330 331 331 329 325 323 324 325 326 327 326 326 326 326 324 323
259 258 257 255 254 252 251 252 254 256 258 260 261 262 264 266 269 270 270 269 269 269 269 268 267 265 264 261 259 257 256 254 253 253 251 246 239 233 228 227 232 237 242 246 252 258 263 267 269 267 268 275 284 290 292 289 286 287 293 301 307 308 309 313 318 324 329 331 332 334 335 332 328 324 324 325 327 329 330 329 328 329 330 331 331
257 256 253 252 252 252 251 252 255 256 258 259 259 261 264 267 269 270 270 270 271 270 269 268 267 265 262 258 254 251 248 245 243 240 233 225 224 227 229 231 232 233 238 246 254 258 259 260 259 263 276 288 290 287 283 280 284 295 306 311 312 314 319 326 332 335 336 336 337 338 336 332 328 325 325 326 328 332 333 331 329 331 335 335 335
254 254 251 249 250 251 251 253 255 256 257 258 259 261 266 269 270 270 270 270 270 268 266 263 260 258 254 250 245 242 238 232 226 219 214 214 221 226 228 228 229 231 237 246 251 252 251 250 256 273 285 284 278 275 277 285 301 313 315 314 317 325 335 340 341 340 340 340 340 340 337 333 330 327 326 327 330 335 336 334 330 331 334 337 337
249 251 250 247 249 253 256 256 257 258 259 261 263 266 269 270 270 270 269 267 263 259 254 250 246 239 232 229 223 217 212 206 202 204 209 215 220 223 223 224 227 230 237 243 244 240 240 251 269 277 274 267 266 273 288 309 322 321 316 318 327 338 346 348 345 343 341 341 342 341 339 336 333 330 329 330 334 337 338 336 332 329 329 333 338
244 247 248 248 252 256 259 260 261 263 265 266 267 269 269 269 269 266 260 252 243 232 222 218 210 195 190 196 196 191 192 195 197 202 209 215 216 217 218 220 225 230 233 235 232 228 238 261 267 261 257 258 270 291 314 328 327 322 320 328 339 347 352 352 349 346 343 342 343 343 342 340 338 335 332 333 335 336 338 338 336 331 326 327 333
238 244 249 252 255 258 261 264 267 269 270 270 270 270 269 266 261 246 227 212 199 192 193 197 195 187 186 190 191 189 191 195 199 203 208 209 208 208 209 215 222 224 224 222 221 224 241 252 250 249 255 270 296 315 329 332 328 326 331 339 346 353 356 355 353 349 345 343 344 345 345 346 345 340 335 334 335 336 338 339 338 334 328 325 330
234 241 247 252 257 263 269 273 273 272 271 269 265 261 253 237 215 200 194 190 183 182 190 194 190 183 180 181 185 188 193 196 197 200 201 198 195 196 202 208 211 212 213 216 220 226 234 240 244 254 275 306 317 323 332 334 331 332 338 343 349 356 360 358 356 353 348 345 345 345 347 350 351 347 341 336 334 335 339 341 340 337 332 327 330
230 238 246 255 264 270 273 273 269 261 247 227 202 184 177 173 171 172 179 182 179 177 179 178 173 168 166 168 173 180 185 186 185 186 185 183 182 188 194 199 202 206 212 217 220 223 229 240 253 272 304 322 323 327 334 335 333 336 339 342 350 359 2 360 357 355 353 350 348 347 349 352 354 352 347 341 335 335 339 344 344 340 334 330 330
226 238 248 255 259 259 259 261 242 206 184 170 163 165 167 162 159 161 166 168 164 161 161 161 162 163 163 163 166 172 175 177 177 177 176 175 178 183 189 195 198 203 208 213 217 225 235 247 263 286 309 320 324 329 333 333 332 336 339 342 351 360 2 360 358 357 357 357 354 351 351 353 356 356 353 346 340 337 338 343 346 342 333 328 328
217 230 224 196 164 147 132 112 140 169 170 164 159 161 163 158 152 150 150 148 144 145 150 157 164 168 169 169 171 173 175 177 178 177 174 173 176 180 184 187 190 194 202 212 220 230 242 258 278 296 309 319 325 328 329 330 333 338 340 344 351 357 359 359 358 358 359 0 358 356 354 355 356 358 356 352 346 340 338 341 346 344 335 326 325
176 159 144 136 131 127 123 117 116 131 143 148 151 153 153 149 144 144 148 149 145 143 149 164 170 171 174 177 179 179 181 182 180 176 171 170 172 173 174 176 182 192 203 214 226 242 258 280 296 304 311 319 323 325 329 331 335 338 341 344 349 353 356 356 356 357 359 0 360 359 358 357 357 358 358 355 350 344 339 339 343 344 337 326 322
139 137 136 133 124 118 122 132 135 135 138 145 150 149 147 144 140 139 148 156 155 152 163 177 178 176 180 183 182 180 180 178 174 169 166 164 164 165 167 171 181 194 209 228 249 272 289 298 303 307 314 319 323 325 329 332 334 337 339 342 345 347 350 352 352 354 357 360 0 360 359 359 357 357 358 357 354 349 343 338 339 342 340 330 320
135 139 139 132 116 107 114 126 128 127 131 138 141 138 136 135 135 137 146 160 168 175 182 184 182 183 184 181 178 176 174 171 168 167 164 161 161 161 164 170 180 199 227 257 280 293 299 302 304 309 316 320 322 325 328 330 333 334 336 338 341 343 345 347 349 351 355 358 359 359 359 359 358 356 356 357 356 353 347 341 339 341 342 337 325
136 140 140 130 110 96 103 120 123 119 116 119 126 130 134 138 144 151 160 168 176 181 181 181 183 184 181 176 173 171 170 169 167 165 162 160 160 160 160 167 184 223 269 292 300 302 302 304 308 313 316 318 319 321 323 327 329 331 332 335 339 341 342 342 344 347 352 355 356 356 358 359 357 356 355 356 356 354 351 346 343 342 344 343 337
133 134 134 130 116 100 100 121 129 124 118 117 123 132 144 154 162 167 169 172 174 174 175 178 179 176 172 170 170 170 168 166 164 162 160 159 158 155 154 177 272 306 314 315 310 308 308 309 310 312 313 314 315 316 318 322 324 326 329 332 335 337 338 338 339 342 347 351 352 353 355 357 356 355 354 355 355 354 352 349 347 346 345 344 343
132 133 134 137 136 127 122 129 135 137 136 137 139 143 154 171 183 180 170 169 172 172 172 173 172 169 170 173 174 172 170 168 167 167 167 171 177 197 260 293 305 313 316 315 313 312 312 311 310 310 311 311 311 312 314 316 319 321 324 328 330 331 331 333 335 339 342 345 347 349 352 354 354 354 354 355 355 354 352 350 349 349 348 346 344
Height
3116 3117 3117 3117 3118 3118 3120 3121 3122 3123 3124 3125 3126 3128 3129 3130 3131 3131 3132 3133 3134 3134 3134 3134 3135 3135 3136 3136 3137 3137 3137 3137 3137 3137 3137 3137 3137 3136 3136 3136 3137 3137 3137 3137 3137 3136 3136 3135 3135 3135 3135 3135 3135 3136 3136 3137 3137 3137 3137 3137 3137 3137 3137 3136 3136 3136 3135 3135 3135 3135 3135 3135 3135 3135 3135 3134 3134 3134 3133 3133 3132 3132 3132 3131 3131
3114 3115 3115 3115 3115 3115 3117 3119 3120 3121 3122 3124 3125 3126 3127 3128 3129 3130 3131 3132 3133 3133 3133 3134 3134 3135 3135 3136 3136 3136 3136 3136 3136 3136 3136 3136 3136 3136 3135 3135 3135 3136 3136 3136 3136 3136 3136 3135 3135 3135 3135 3134 3134 3135 3135 3136 3136 3136 3136 3136 3136 3136 3136 3136 3135 3135 3134 3134 3134 3134 3134 3134 3134 3133 3133 3133 3133 3132 3131 3131 3130 3129 3129 3128 3128
3113 3113 3113 3113 3113 3113 3115 3116 3118 3119 3120 3122 3123 3124 3125 3126 3128 3129 3130 3131 3131 3131 3132 3132 3133 3134 3134 3135 3135 3135 3135 3135 3135 3135 3134 3134 3134 3134 3134 3134 3134 3134 3134 3134 3135 3135 3135 3134 3134 3134 3134 3134 3133 3133 3134 3134 3134 3134 3134 3134 3135 3135 3135 3135 3135 3134 3134 3133 3133 3133 3132 3132 3132 3131 3131 3131 3130 3130 3129 3129 3128 3127 3126 3125 3125
3110 3110 3110 3111 3111 3112 3113 3114 3116 3116 3118 3120 3122 3123 3123 3124 3126 3128 3128 3129 3129 3129 3130 3131 3132 3133 3133 3133 3133 3134 3134 3134 3134 3134 3134 3134 3133 3133 3133 3133 3133 3133 3133 3133 3133 3133 3133 3133 3133 3133 3132 3132 3132 3132 3132 3132 3132 3132 3132 3132 3132 3133 3133 3133 3133 3134 3133 3133 3132 3131 3131 3130 3130 3129 3129 3128 3128 3127 3126 3126 3125 3124 3123 3122 3121
3108 3108 3108 3108 3109 3110 3111 3112 3113 3114 3116 3118 3120 3121 3122 3123 3124 3126 3126 3127 3128 3128 3129 3130 3131 3131 3131 3132 3132 3132 3132 3133 3133 3133 3133 3133 3133 3132 3131 3131 3131 3131 3131 3131 3131 3131 3131 3131 3131 3131 3130 3130 3130 3130 3130 3130 3130 3130 3130 3130 3130 3131 3131 3131 3131 3131 3131 3131 3130 3130 3129 3128 3127 3127 3127 3126 3126 3125 3124 3123 3122 3121 3120 3119 3118
3105 3105 3106 3106 3107 3108 3109 3110 3111 3112 3113 3115 3117 3119 3120 3121 3123 3124 3125 3126 3127 3127 3127 3128 3128 3128 3128 3129 3129 3129 3130 3130 3131 3131 3131 3131 3131 3131 3130 3129 3129 3129 3129 3129 3129 3129 3129 3129 3129 3129 3128 3128 3128 3128 3128 3128 3128 3128 3128 3128 3128 3128 3129 3129 3129 3128 3128 3127 3127 3127 3126 3125 3125 3124 3123 3123 3123 3122 3122 3121 3120 3118 3117 3116 3115
3103 3104 3104 3105 3105 3106 3107 3107 3109 3110 3111 3112 3114 3116 3117 3118 3120 3121 3122 3123 3124 3125 3125 3126 3126 3126 3126 3126 3127 3128 3127 3127 3128 3128 3128 3127 3127 3128 3128 3127 3127 3127 3127 3127 3127 3128 3128 3127 3127 3127 3127 3127 3126 3126 3126 3125 3125 3125 3126 3126 3126 3126 3126 3126 3126 3125 3125 3124 3124 3123 3122 3122 3121 3121 3120 3119 3118 3118 3117 3117 3117 3116 3114 3113 3112
3102 3103 3103 3104 3104 3105 3105 3106 3107 3107 3109 3111 3112 3113 3114 3116 3117 3118 3119 3120 3121 3122 3122 3123 3124 3124 3124 3124 3125 3125 3125 3125 3125 3125 3124 3124 3124 3125 3125 3125 3124 3125 3125 3125 3125 3126 3126 3126 3126 3126 3126 3126 3125 3124 3123 3123 3123 3123 3123 3123 3123 3123 3123 3123 3123 3122 3122 3121 3121 3120 3119 3118 3117 3117 3116 3115 3114 3113 3112 3111 3112 3112 3112 3111 3109
3101 3102 3102 3103 3103 3104 3104 3104 3105 3106 3107 3109 3110 3110 3112 3114 3115 3116 3117 3118 3118 3119 3120 3121 3121 3121 3121 3121 3122 3122 3122 3122 3122 3122 3122 3122 3122 3123 3123 3122 3122 3123 3123 3123 3124 3124 3124 3124 3124 3124 3124 3123 3123 3122 3121 3120 3120 3120 3120 3119 3119 3119 3119 3119 3118 3118 3118 3118 3118 3117 3116 3115 3113 3113 3112 3111 3110 3109 3108 3106 3106 3106 3106 3107 3106
3100 3101 3101 3102 3102 3103 3103 3103 3104 3105 3106 3107 3108 3108 3110 3111 3112 3113 3114 3115 3116 3116 3117 3118 3119 3119 3119 3119 3119 3119 3119 3119 3119 3119 3120 3120 3120 3120 3120 3120 3120 3120 3120 3121 3121 3121 3121 3122 3121 3121 3121 3120 3120 3120 3119 3118 3117 3117 3117 3116 3116 3116 3116 3115 3114 3113 3113 3113 3113 3114 3113 3111 3110 3108 3107 3106 3105 3104 3103 3102 3101 3101 3100 3101 3102
3100 3100 3101 3101 3102 3102 3102 3102 3103 3103 3104 3105 3106 3107 3108 3109 3110 3111 3112 3113 3114 3114 3115 3116 3117 3117 3116 3116 3117 3117 3117 3116 3116 3116 3117 3117 3117 3117 3117 3117 3117 3117 3117 3117 3117 3118 3118 3119 3119 3118 3118 3117 3117 3116 3116 3115 3115 3114 3114 3113 3113 3113 3112 3111 3110 3109 3108 3107 3107 3108 3108 3107 3106 3104 3103 3102 3101 3100 3099 3097 3096 3096 3095 3094 3095
3098 3098 3099 3100 3100 3101 3101 3101 3101 3102 3103 3104 3105 3106 3107 3108 3108 3109 3110 3111 3112 3113 3113 3114 3114 3114 3114 3114 3114 3114 3114 3114 3114 3114 3114 3115 3114 3114 3114 3114 3114 3114 3114 3115 3115 3115 3116 3116 3116 3116 3115 3115 3114 3113 3113 3112 3112 3111 3111 3110 3110 3109 3109 3107 3106 3105 3104 3102 3102 3103 3103 3102 3101 3100 3098 3097 3096 3095 3094 3093 3091 3090 3089 3089 3088
3097 3097 3097 3098 3099 3100 3100 3101 3101 3101 3102 3102 3103 3105 3106 3106 3107 3108 3109 3109 3110 3111 3111 3111 3111 3111 3111 3111 3112 3112 3112 3112 3111 3111 3111 3111 3111 3111 3111 3111 3111 3112 3112 3112 3112 3113 3113 3113 3113 3113 3112 3112 3111 3111 3110 3109 3109 3108 3108 3107 3107 3106 3105 3104 3103 3101 3100 3099 3098 3099 3099 3097 3096 3095 3093 3092 3091 3090 3089 3088 3087 3085 3084 3083 3083
3095 3096 3096 3097 3098 3099 3099 3100 3100 3101 3102 3102 3103 3103 3104 3105 3105 3106 3106 3107 3107 3108 3108 3108 3108 3108 3108 3108 3109 3109 3109 3109 3109 3108 3108 3108 3108 3108 3108 3108 3108 3109 3109 3109 3109 3110 3110 3109 3109 3109 3109 3108 3108 3107 3107 3106 3106 3105 3105 3104 3103 3102 3101 3101 3100 3099 3097 3096 3095 3095 3094 3093 3092 3091 3089 3087 3085 3084 3083 3083 3082 3080 3079 3078 3077
3093 3093 3094 3095 3096 3097 3097 3098 3099 3099 3100 3100 3101 3101 3101 3102 3102 3103 3103 3104 3104 3104 3105 3105 3105 3105 3105 3105 3106 3106 3106 3106 3106 3105 3105 3105 3105 3105 3105 3105 3105 3105 3106 3106 3106 3106 3106 3106 3105 3105 3105 3104 3104 3103 3103 3102 3102 3101 3101 3100 3099 3098 3098 3097 3096 3095 3094 3093 3092 3091 3090 3089 3088 3086 3085 3083 3081 3079 3078 3077 3076 3074 3073 3072 3072
3089 3090 3091 3092 3093 3093 3094 3095 3096 3096 3097 3097 3098 3098 3098 3099 3099 3099 3100 3101 3101 3101 3101 3102 3102 3102 3102 3102 3102 3102 3103 3103 3102 3102 3102 3101 3101 3102 3102 3102 3102 3102 3103 3103 3103 3102 3102 3102 3102 3101 3101 3101 3100 3100 3099 3099 3098 3098 3097 3096 3096 3095 3094 3093 3093 3092 3091 3090 3089 3088 3086 3085 3083 3082 3080 3078 3076 3074 3073 3071 3070 3068 3067 3066 3065
3086 3087 3088 3089 3090 3090 3091 3092 3093 3093 3094 3095 3095 3096 3096 3096 3097 3097 3098 3098 3098 3098 3098 3099 3099 3099 3099 3099 3099 3099 3099 3099 3099 3099 3099 3098 3098 3098 3098 3099 3099 3099 3099 3099 3099 3099 3098 3098 3098 3098 3097 3097 3096 3096 3096 3095 3095 3094 3093 3093 3092 3091 3091 3090 3089 3088 3087 3086 3085 3084 3082 3081 3079 3077 3075 3073 3071 3069 3068 3066 3065 3063 3061 3059 3058
3083 3083 3084 3084 3086 3087 3088 3089 3090 3091 3092 3092 3093 3093 3094 3094 3095 3095 3095 3095 3095 3096 3096 3096 3096 3096 3096 3096 3096 3096 3096 3096 3096 3096 3095 3095 3095 3095 3095 3095 3095 3095 3095 3095 3095 3095 3095 3095 3094 3094 3094 3093 3093 3093 3092 3092 3091 3091 3090 3089 3088 3088 3087 3086 3085 3084 3083 3082 3080 3079 3077 3076 3074 3073 3071 3069 3066 3064 3062 3060 3059 3057 3055 3053 3052
3081 3081 3081 3081 3083 3084 3086 3087 3088 3088 3089 3090 3090 3091 3091 3091 3092 3092 3092 3092 3092 3093 3093 3093 3093 3093 3093 3093 3093 3093 3093 3093 3093 3092 3092 3092 3092 3092 3092 3092 3092 3092 3092 3091 3091 3091 3091 3091 3090 3090 3090 3090 3089 3089 3088 3088 3087 3087 3086 3085 3085 3084 3083 3082 3080 3079 3078 3077 3075 3074 3072 3070 3069 3067 3065 3064 3061 3059 3057 3055 3053 3052 3050 3048 3046
3079 3079 3079 3080 3081 3082 3083 3084 3085 3086 3086 3087 3088 3088 3088 3088 3089 3089 3089 3089 3089 3089 3090 3090 3090 3090 3091 3091 3091 3090 3090 3090 3089 3089 3089 3088 3088 3088 3088 3088 3088 3088 3088 3088 3088 3087 3087 3087 3087 3087 3086 3086 3086 3085 3084 3084 3083 3083 3082 3081 3081 3080 3079 3077 3076 3075 3073 3072 3070 3069 3067 3066 3064 3062 3060 3059 3057 3055 3053 3050 3048 3046 3044 3043 3041
3076 3076 3076 3077 3078 3079 3080 3081 3082 3083 3083 3083 3084 3084 3085 3085 3085 3086 3086 3086 3086 3086 3087 3087 3087 3087 3087 3087 3087 3087 3087 3087 3086 3086 3085 3085 3085 3084 3084 3084 3084 3084 3084 3084 3084 3084 3084 3084 3083 3083 3083 3082 3081 3081 3081 3080 3080 3079 3078 3077 3076 3075 3074 3073 3071 3070 3069 3067 3066 3064 3063 3061 3059 3057 3056 3054 3052 3050 3048 3046 3044 3042 3039 3037 3036
3073 3073 3073 3074 3075 3076 3077 3078 3078 3079 3079 3080 3080 3080 3081 3081 3082 3082 3082 3082 3083 3083 3083 3083 3083 3084 3084 3084 3084 3084 3083 3083 3083 3082 3082 3082 3081 3081 3081 3080 3080 3080 3080 3080 3080 3080 3080 3079 3079 3079 3078 3077 3077 3077 3077 3076 3076 3075 3074 3073 3072 3071 3070 3069 3067 3065 3064 3062 3061 3059 3058 3056 3054 3052 3051 3049 3047 3045 3043 3041 3039 3037 3035 3032 3030
3069 3069 3070 3071 3072 3073 3073 3074 3075 3075 3075 3076 3076 3076 3077 3077 3077 3078 3078 3078 3078 3079 3079 3079 3079 3079 3079 3079 3079 3079 3079 3079 3079 3079 3078 3078 3078 3077 3077 3076 3076 3076 3076 3075 3075 3075 3075 3075 3074 3074 3073 3073 3073 3072 3072 3072 3072 3071 3070 3069 3068 3067 3066 3064 3063 3061 3060 3058 3056 3055 3053 3051 3049 3048 3046 3044 3042 3040 3038 3036 3034 3031 3029 3027 3024
3064 3065 3066 3067 3068 3069 3070 3070 3071 3071 3071 3072 3072 3072 3073 3073 3073 3073 3073 3074 3074 3074 3074 3074 3075 3075 3075 3075 3075 3075 3075 3075 3074 3074 3074 3074 3074 3074 3073 3072 3072 3072 3071 3071 3070 3070 3070 3070 3069 3069 3069 3068 3068 3068 3068 3067 3067 3066 3065 3065 3064 3062 3061 3060 3058 3057 3055 3054 3052 3051 3049 3047 3045 3043 3041 3039 3037 3035 3033 3030 3028 3026 3023 3020 3018
3059 3060 3061 3062 3063 3064 3065 3065 3066 3067 3067 3067 3068 3068 3068 3068 3069 3069 3069 3069 3070 3070 3070 3070 3070 3070 3070 3070 3070 3070 3070 3070 3070 3070 3070 3070 3069 3069 3068 3068 3068 3067 3067 3066 3066 3065 3065 3065 3065 3064 3064 3064 3064 3063 3063 3063 3062 3061 3061 3060 3059 3058 3057 3055 3054 3053 3051 3050 3048 3047 3045 3043 3041 3038 3036 3034 3032 3029 3027 3024 3022 3019 3016 3013 3011
3055 3056 3056 3057 3058 3058 3059 3060 3061 3062 3062 3063 3063 3063 3063 3064 3064 3064 3065 3065 3065 3065 3065 3065 3065 3065 3065 3065 3065 3065 3065 3065 3065 3065 3065 3065 3065 3064 3064 3064 3063 3063 3062 3062 3061 3061 3061 3060 3060 3060 3059 3059 3059 3059 3058 3058 3057 3057 3056 3055 3054 3053 3053 3051 3050 3049 3048 3046 3044 3042 3041 3038 3036 3034 3031 3028 3026 3023 3020 3017 3014 3012 3010 3007 3004
3050 3051 3051 3052 3053 3053 3054 3055 3055 3056 3057 3057 3058 3058 3058 3058 3059 3059 3059 3059 3060 3060 3060 3060 3060 3060 3060 3060 3060 3060 3060 3060 3060 3060 3060 3060 3059 3059 3059 3059 3059 3058 3058 3057 3057 3056 3056 3056 3055 3055 3055 3055 3054 3054 3054 3053 3053 3052 3052 3051 3050 3050 3049 3048 3046 3045 3044 3042 3040 3038 3036 3034 3031 3028 3026 3023 3020 3017 3013 3010 3007 3004 3002 2999 2997
3044 3045 3046 3046 3047 3048 3048 3049 3050 3051 3051 3052 3052 3053 3053 3053 3053 3053 3053 3053 3053 3054 3054 3054 3055 3055 3055 3055 3054 3054 3055 3055 3055 3055 3055 3054 3054 3054 3054 3054 3054 3054 3053 3053 3052 3052 3051 3051 3051 3050 3050 3050 3050 3050 3050 3049 3049 3049 3048 3048 3047 3046 3045 3044 3043 3041 3039 3037 3035 3033 3031 3028 3026 3023 3020 3017 3014 3011 3008 3004 3001 2998 2995 2993 2991
3036 3038 3039 3040 3041 3042 3043 3044 3045 3045 3046 3046 3047 3047 3048 3048 3048 3048 3048 3048 3048 3048 3048 3049 3049 3049 3049 3049 3049 3049 3050 3050 3050 3050 3050 3050 3050 3050 3050 3050 3050 3050 3049 3048 3048 3047 3047 3046 3046 3046 3046 3046 3046 3046 3046 3046 3046 3045 3045 3044 3043 3043 3042 3041 3039 3037 3035 3033 3031 3028 3026 3023 3021 3018 3014 3011 3009 3006 3003 3000 2997 2994 2991 2989 2987
3029 3031 3033 3034 3035 3037 3037 3038 3039 3040 3041 3041 3042 3042 3042 3042 3042 3043 3043 3043 3043 3043 3043 3043 3044 3044 3044 3044 3044 3044 3045 3046 3046 3046 3046 3046 3046 3046 3046 3046 3046 3045 3045 3044 3043 3043 3042 3042 3042 3043 3043 3043 3043 3043 3043 3043 3043 3042 3042 3041 3040 3039 3038 3037 3035 3033 3031 3029 3027 3024 3022 3019 3016 3013 3009 3007 3005 3003 3000 2996 2993 2991 2988 2986 2984
3024 3025 3027 3028 3030 3031 3032 3033 3034 3035 3035 3036 3036 3036 3037 3037 3037 3037 3037 3037 3038 3038 3038 3038 3039 3039 3039 3039 3039 3040 3041 3041 3041 3041 3042 3042 3042 3042 3042 3042 3042 3042 3041 3040 3040 3039 3039 3040 3040 3040 3041 3041 3040 3040 3040 3040 3040 3039 3039 3038 3037 3036 3035 3033 3031 3030 3028 3026 3023 3021 3017 3014 3011 3008 3005 3003 3001 2999 2997 2994 2990 2988 2985 2983 2981
3018 3019 3021 3023 3024 3025 3026 3027 3028 3029 3029 3030 3031 3031 3032 3032 3032 3032 3032 3032 3032 3032 3033 3033 3034 3034 3034 3035 3035 3036 3036 3037 3037 3037 3037 3038 3038 3038 3039 3039 3039 3038 3038 3038 3037 3037 3037 3038 3038 3038 3038 3038 3038 3038 3038 3037 3037 3036 3036 3035 3034 3033 3031 3030 3028 3027 3025 3023 3020 3017 3014 3010 3007 3004 3002 2999 2997 2995 2993 2990 2987 2985 2982 2980 2978
3012 3014 3015 3017 3018 3019 3020 3021 3022 3023 3024 3025 3025 3026 3026 3026 3027 3027 3027 3026 3026 3027 3028 3028 3029 3029 3030 3030 3030 3031 3032 3032 3032 3033 3033 3033 3034 3035 3035 3035 3035 3035 3035 3035 3035 3036 3036 3036 3036 3036 3036 3036 3036 3035 3035 3035 3034 3034 3033 3032 3031 3030 3029 3027 3026 3024 3022 3019 3016 3013 3009 3006 3003 3000 2998 2996 2994 2991 2989 2987 2984 2981 2979 2977 2975
3005 3007 3009 3011 3012 3013 3015 3016 3017 3017 3018 3019 3020 3020 3021 3021 3021 3021 3021 3021 3022 3022 3023 3023 3024 3024 3025 3025 3026 3026 3027 3027 3028 3028 3029 3030 3030 3031 3031 3032 3032 3033 3033 3034 3034 3034 3034 3034 3034 3034 3034 3033 3033 3033 3033 3032 3032 3031 3031 3030 3029 3028 3027 3025 3023 3021 3018 3015 3012 3009 3005 3002 2999 2997 2995 2993 2991 2988 2986 2983 2981 2978 2976 2974 2972
3000 3002 3003 3005 3006 3007 3008 3009 3010 3011 3012 3013 3014 3015 3016 3016 3016 3016 3016 3016 3017 3017 3018 3018 3019 3019 3020 3021 3021 3022 3022 3023 3023 3024 3025 3026 3027 3027 3028 3029 3030 3030 3031 3031 3032 3032 3032 3032 3032 3032 3031 3031 3031 3031 3031 3030 3030 3029 3029 3028 3027 3026 3024 3023 3021 3018 3015 3012 3008 3005 3001 2998 2996 2994 2992 2990 2987 2985 2983 2980 2978 2975 2973 2971 2969
2995 2997 2998 2999 3000 3000 3001 3003 3004 3005 3007 3008 3009 3010 3010 3011 3011 3011 3011 3011 3012 3012 3013 3013 3014 3014 3015 3016 3016 3017 3017 3018 3019 3020 3021 3023 3024 3025 3026 3027 3027 3028 3029 3029 3030 3030 3030 3030 3030 3030 3030 3029 3029 3029 3029 3029 3028 3028 3027 3026 3025 3024 3022 3020 3018 3015 3012 3009 3005 3002 2999 2996 2994 2991 2989 2987 2984 2982 2980 2978 2975 2973 2971 2969 2968
2991 2992 2993 2994 2995 2995 2995 2997 2998 3000 3001 3002 3003 3004 3005 3005 3006 3006 3006 3006 3007 3007 3008 3008 3008 3009 3010 3010 3011 3012 3013 3014 3015 3017 3018 3020 3022 3023 3024 3025 3025 3026 3027 3028 3028 3028 3028 3028 3028 3028 3028 3028 3028 3028 3028 3027 3027 3026 3025 3024 3023 3022 3020 3017 3015 3012 3009 3006 3003 2999 2997 2994 2992 2989 2986 2984 2982 2980 2978 2976 2974 2972 2970 2968 2966
2987 2988 2989 2991 2992 2992 2992 2993 2994 2995 2996 2997 2998 2999 3000 3000 3001 3001 3001 3002 3002 3002 3003 3003 3004 3004 3005 3005 3006 3007 3009 3011 3012 3014 3017 3018 3020 3021 3022 3023 3024 3024 3025 3025 3026 3026 3026 3026 3026 3026 3027 3027 3027 3027 3026 3026 3025 3024 3023 3022 3021 3019 3017 3014 3012 3009 3006 3003 3001 2998 2995 2993 2990 2987 2985 2982 2980 2978 2976 2974 2972 2971 2969 2967 2965
2984 2985 2986 2987 2988 2989 2989 2990 2991 2992 2992 2993 2994 2995 2995 2996 2996 2996 2997 2997 2997 2998 2999 2999 3000 3001 3002 3003 3004 3006 3007 3009 3011 3013 3015 3017 3018 3019 3020 3021 3022 3023 3023 3024 3024 3025 3025 3025 3025 3025 3025 3026 3026 3025 3025 3024 3023 3022 3022 3020 3019 3017 3014 3012 3010 3007 3005 3002 2999 2997 2994 2991 2988 2986 2983 2980 2978 2976 2974 2972 2970 2969 2967 2966 2964
2982 2983 2983 2984 2985 2986 2987 2987 2988 2988 2989 2989 2990 2990 2991 2991 2991 2992 2992 2993 2994 2995 2996 2997 2998 3000 3001 3002 3004 3005 3007 3009 3010 3012 3013 3015 3016 3017 3018 3019 3020 3021 3021 3022 3023 3023 3024 3024 3024 3024 3025 3025 3024 3024 3023 3022 3022 3021 3020 3019 3017 3015 3013 3010 3008 3006 3003 3000 2998 2995 2993 2990 2987 2984 2982 2979 2977 2974 2972 2970 2968 2967 2965 2964 2963
2979 2980 2981 2982 2983 2984 2984 2984 2984 2984 2985 2985 2985 2986 2986 2987 2988 2988 2989 2990 2992 2993 2995 2996 2997 2999 3000 3002 3003 3005 3006 3008 3009 3010 3012 3013 3014 3016 3017 3018 3018 3019 3020 3021 3021 3022 3023 3023 3023 3023 3023 3023 3023 3022 3021 3021 3020 3019 3018 3016 3015 3013 3011 3009 3007 3004 3002 2999 2997 2994 2992 2989 2985 2983 2980 2978 2976 2973 2971 2969 2967 2965 2964 2963 2961
2977 2979 2980 2980 2981 2981 2981 2981 2981 2981 2981 2982 2983 2983 2984 2984 2985 2986 2988 2990 2991 2992 2994 2995 2997 2998 2999 3001 3003 3004 3006 3007 3008 3009 3011 3012 3013 3014 3015 3016 3017 3018 3019 3020 3020 3021 3022 3022 3022 3022 3022 3021 3021 3020 3020 3019 3019 3018 3016 3015 3014 3012 3009 3008 3006 3003 3001 2998 2996 2993 2990 2987 2984 2982 2979 2977 2975 2972 2970 2968 2966 2964 2962 2961 2960
2976 2977 2978 2979 2979 2979 2979 2979 2979 2979 2980 2981 2982 2983 2984 2984 2985 2986 2988 2990 2991 2993 2994 2996 2997 2998 2999 3001 3002 3004 3005 3007 3008 3009 3010 3011 3012 3013 3014 3015 3016 3017 3018 3019 3020 3020 3021 3021 3021 3021 3020 3020 3019 3019 3019 3018 3017 3016 3015 3014 3012 3010 3008 3006 3005 3003 3000 2998 2995 2992 2989 2987 2984 2981 2978 2975 2973 2971 2969 2967 2965 2963 2961 2960 2959
2975 2976 2977 2978 2978 2978 2978 2978 2978 2978 2979 2981 2982 2984 2985 2985 2986 2987 2989 2991 2992 2994 2995 2997 2998 2999 3000 3001 3003 3004 3005 3006 3008 3009 3009 3010 3011 3012 3014 3015 3015 3016 3017 3018 3019 3019 3019 3019 3019 3019 3019 3018 3018 3018 3017 3017 3016 3015 3014 3012 3010 3008 3007 3005 3004 3002 2999 2997 2994 2991 2989 2986 2983 2980 2977 2974 2972 2970 2968 2966 2964 2962 2960 2959 2958
2974 2975 2976 2977 2978 2979 2979 2979 2978 2979 2980 2982 2983 2985 2986 2987 2988 2989 2991 2992 2994 2995 2997 2998 2999 3000 3001 3002 3003 3004 3005 3006 3007 3008 3009 3010 3011 3012 3013 3014 3015 3016 3017 3017 3018 3018 3018 3018 3018 3018 3017 3017 3016 3016 3015 3015 3014 3013 3012 3011 3009 3007 3005 3004 3002 3000 2998 2995 2993 2990 2988 2985 2982 2979 2976 2974 2971 2969 2967 2965 2963 2961 2959 2958 2957
2974 2975 2977 2978 2979 2980 2981 2981 2981 2981 2982 2983 2985 2986 2987 2989 2990 2991 2992 2993 2995 2996 2997 2998 2999 3000 3001 3002 3003 3004 3005 3006 3007 3008 3008 3009 3010 3011 3013 3014 3015 3015 3016 3016 3017 3017 3017 3017 3016 3016 3016 3015 3015 3014 3014 3013 3012 3011 3010 3009 3007 3005 3004 3002 3001 2999 2996 2994 2992 2989 2987 2984 2981 2978 2976 2973 2970 2968 2966 2964 2962 2960 2958 2957 2956
2975 2977 2978 2980 2981 2982 2982 2983 2983 2983 2984 2985 2987 2988 2989 2990 2992 2993 2994 2995 2996 2997 2998 2999 3000 3001 3001 3002 3003 3004 3005 3006 3007 3008 3008 3009 3010 3011 3012 3013 3014 3015 3015 3015 3015 3015 3015 3015 3015 3015 3014 3014 3013 3013 3012 3011 3010 3009 3008 3007 3006 3004 3003 3001 2999 2997 2995 2993 2991 2988 2986 2983 2980 2978 2975 2973 2970 2968 2966 2963 2961 2959 2957 2956 2955
2977 2979 2981 2982 2983 2983 2984 2984 2985 2985 2986 2987 2989 2990 2990 2992 2993 2994 2995 2996 2996 2997 2998 2999 3000 3001 3002 3003 3003 3004 3005 3006 3007 3007 3008 3009 3010 3011 3012 3013 3013 3013 3014 3014 3014 3014 3014 3014 3014 3013 3013 3012 3012 3011 3011 3010 3009 3008 3007 3005 3004 3003 3001 2999 2998 2996 2994 2992 2990 2987 2985 2982 2980 2977 2974 2972 2970 2967 2965 2963 2961 2959 2957 2955 2954
2980 2981 2983 2984 2984 2985 2985 2986 2986 2987 2988 2989 2990 2991 2992 2993 2993 2994 2995 2996 2996 2997 2998 2999 3000 3001 3002 3003 3003 3004 3005 3006 3007 3007 3008 3009 3010 3011 3011 3012 3012 3012 3013 3013 3013 3013 3013 3012 3012 3012 3011 3011 3010 3010 3009 3008 3007 3006 3005 3004 3002 3001 2999 2998 2996 2994 2993 2990 2988 2987 2984 2982 2979 2977 2974 2972 2969 2967 2965 2963 2960 2958 2956 2954 2953
2982 2983 2984 2985 2986 2987 2987 2988 2988 2989 2990 2990 2991 2992 2993 2993 2994 2995 2995 2996 2997 2997 2998 2999 3000 3001 3002 3003 3004 3004 3005 3006 3007 3007 3008 3009 3009 3010 3011 3011 3011 3011 3011 3011 3011 3011 3011 3011 3010 3010 3009 3009 3009 3008 3007 3007 3006 3005 3004 3002 3001 2999 2998 2996 2995 2993 2991 2989 2988 2986 2984 2981 2979 2977 2974 2972 2969 2967 2965 2963 2960 2958 2956 2954 2952
2984 2985 2986 2987 2987 2988 2989 2989 2990 2990 2991 2992 2992 2993 2994 2994 2995 2995 2996 2996 2997 2998 2998 2999 3000 3001 3002 3003 3003 3004 3005 3006 3006 3007 3008 3008 3009 3009 3010 3010 3010 3010 3010 3010 3010 3009 3009 3009 3008 3008 3008 3007 3007 3006 3005 3005 3004 3003 3002 3001 2999 2998 2997 2995 2994 2992 2990 2988 2986 2985 2983 2981 2979 2977 2974 2972 2969 2967 2965 2962 2960 2958 2955 2954 2952